Location: Home
(42.5358°N, 72.7383°W)
Time: 00:39:02
(UTC-05:00)

Vanguard 1 - Pass Details

Date: 06 December 2021
Orbit: 652 x 3830 km, 34.2° (Epoch: 21 January)

Event Time Altitude Azimuth Distance (km) Brightness Sun altitude
Rises 00:30:56 0° 251° (WSW) 7,288 - -67.5°
Reaches altitude 10° 00:35:27 10° 249° (WSW) 6,523 - -67.1°
Maximum altitude 00:58:06 67° 173° (S) 3,970 - -64.5°
Exits shadow 01:08:13 41° 109° (ESE) 4,431 13.2 -63.1°
Drops below altitude 10° 01:17:54 10° 97° (E) 5,824 14.2 -61.7°
Sets 01:21:39 0° 94° (E) 6,512 14.6 -61.2°
